User: anonymous   Login
Location: Unspecified
(0.0000°N, 0.0000°E)
Time: 02:04:51
(UTC+00:00)
Language:

ONEWEB-0020 - Orbit

View from above orbital plane
View from above orbital plane
View from above satellite
View from above satellite

Ground track
Ground track

The orbit is defined by the following mean orbital elements,

1 45133U          26145.21530197 +.00000000 +00000-0 -31324-3 0 00002
2 45133  87.8864  40.8391 0001832  78.3443 281.7890 13.10376612    02
Epoch (UTC): 25 May 2026 05:10:02
Eccentricity: 0.0001832
inclination: 87.8864°
perigee height: 1220 km
apogee height: 1223 km
right ascension of ascending node: 40.8391°
argument of perigee: 78.3443°
revolutions per day: 13.10376612
mean anomaly at epoch: 281.7890°

The dashed part of the orbit path shows where the satellite is in the earth's shadow,  

DLR